owner,sensor,date,latitude,longitude,vertical_datum,wind_speed,wind_to_direction,wind_speed_of_gust,qcFlag 
DISL,ioos:station:DISL:BSCA:1,2018-02-01T00:00:00Z,30.3288,-87.8293,0.0,0.0,0.0,99.0,'11111222,11111222,11144222' 
DISL,ioos:station:DISL:BSCA:1,2018-02-01T00:30:00Z,30.3288,-87.8293,0.0,0.0,0.0,99.0,'11111222,11111222,11144222' 
DISL,ioos:station:DISL:BSCA:1,2018-02-01T01:00:00Z,30.3288,-87.8293,0.0,0.0,0.0,99.0,'11111222,11111222,11144222' 
DISL,ioos:station:DISL:BSCA:1,2018-02-01T01:30:00Z,30.3288,-87.8293,0.0,0.0,0.0,99.0,'11111222,11111222,11144222' 
DISL,ioos:station:DISL:BSCA:1,2018-02-01T02:00:00Z,30.3288,-87.8293,0.0,0.0,0.0,99.0,'11111222,11111222,11144222' 
DISL,ioos:station:DISL:BSCA:1,2018-02-01T02:30:00Z,30.3288,-87.8293,0.0,0.0,0.0,99.0,'11111222,11111222,11144222' 
DISL,ioos:station:DISL:BSCA:1,2018-02-01T03:00:00Z,30.3288,-87.8293,0.0,6.3,140.0,99.0,'11111222,11111222,11144222' 
DISL,ioos:station:DISL:BSCA:1,2018-02-01T03:30:00Z,30.3288,-87.8293,0.0,6.2,140.0,99.0,'11111222,11111222,11144222' 
DISL,ioos:station:DISL:BSCA:1,2018-02-01T04:00:00Z,30.3288,-87.8293,0.0,6.2,143.0,99.0,'11111222,11111222,11144222' 
DISL,ioos:station:DISL:BSCA:1,2018-02-01T04:30:00Z,30.3288,-87.8293,0.0,6.4,144.0,99.0,'11111222,11111222,11144222' 
DISL,ioos:station:DISL:BSCA:1,2018-02-01T05:00:00Z,30.3288,-87.8293,0.0,6.3,142.0,99.0,'11111222,11111222,11144222' 
DISL,ioos:station:DISL:BSCA:1,2018-02-01T05:30:00Z,30.3288,-87.8293,0.0,7.0,141.0,99.0,'11111222,11111222,11144222' 
DISL,ioos:station:DISL:BSCA:1,2018-02-01T06:00:00Z,30.3288,-87.8293,0.0,6.5,146.0,99.0,'11111222,11111222,11144222' 
DISL,ioos:station:DISL:BSCA:1,2018-02-01T06:30:00Z,30.3288,-87.8293,0.0,6.0,143.0,99.0,'11111222,11111222,11144222' 
DISL,ioos:station:DISL:BSCA:1,2018-02-01T07:00:00Z,30.3288,-87.8293,0.0,4.7,151.0,99.0,'11111222,11111222,11144222' 
DISL,ioos:station:DISL:BSCA:1,2018-02-01T07:30:00Z,30.3288,-87.8293,0.0,2.6,175.0,99.0,'11111222,11111222,11144222' 
DISL,ioos:station:DISL:BSCA:1,2018-02-01T08:00:00Z,30.3288,-87.8293,0.0,2.7,186.0,99.0,'11111222,11111222,11144222' 
DISL,ioos:station:DISL:BSCA:1,2018-02-01T08:30:00Z,30.3288,-87.8293,0.0,3.0,181.0,99.0,'11111222,11111222,11144222' 
DISL,ioos:station:DISL:BSCA:1,2018-02-01T09:00:00Z,30.3288,-87.8293,0.0,2.9,192.0,99.0,'11111222,11111222,11144222' 
DISL,ioos:station:DISL:BSCA:1,2018-02-01T09:30:00Z,30.3288,-87.8293,0.0,2.4,185.0,99.0,'11111222,11111222,11144222' 
DISL,ioos:station:DISL:BSCA:1,2018-02-01T10:00:00Z,30.3288,-87.8293,0.0,3.9,163.0,99.0,'11111222,11111222,11144222' 
DISL,ioos:station:DISL:BSCA:1,2018-02-01T10:30:00Z,30.3288,-87.8293,0.0,2.1,182.0,99.0,'11111222,11111222,11144222' 
DISL,ioos:station:DISL:BSCA:1,2018-02-01T11:00:00Z,30.3288,-87.8293,0.0,1.1,187.0,99.0,'11111222,11111222,11144222' 
DISL,ioos:station:DISL:BSCA:1,2018-02-01T11:30:00Z,30.3288,-87.8293,0.0,0.1,187.0,99.0,'11111222,11111222,11144222' 
DISL,ioos:station:DISL:BSCA:1,2018-02-01T12:00:00Z,30.3288,-87.8293,0.0,0.5,181.0,99.0,'11111222,11111222,11144222' 
DISL,ioos:station:DISL:BSCA:1,2018-02-01T12:30:00Z,30.3288,-87.8293,0.0,0.6,195.0,99.0,'11111222,11111222,11144222' 
DISL,ioos:station:DISL:BSCA:1,2018-02-01T13:00:00Z,30.3288,-87.8293,0.0,1.1,346.0,99.0,'11111222,11111222,11144222' 
DISL,ioos:station:DISL:BSCA:1,2018-02-01T13:30:00Z,30.3288,-87.8293,0.0,1.3,353.0,99.0,'11111222,11111222,11144222' 
DISL,ioos:station:DISL:BSCA:1,2018-02-01T14:00:00Z,30.3288,-87.8293,0.0,1.4,26.0,99.0,'11111222,11111222,11144222' 
DISL,ioos:station:DISL:BSCA:1,2018-02-01T14:30:00Z,30.3288,-87.8293,0.0,1.4,53.0,99.0,'11111222,11111222,11144222' 
DISL,ioos:station:DISL:BSCA:1,2018-02-01T15:00:00Z,30.3288,-87.8293,0.0,2.1,77.0,99.0,'11111222,11111222,11144222' 
DISL,ioos:station:DISL:BSCA:1,2018-02-01T15:30:00Z,30.3288,-87.8293,0.0,2.3,105.0,99.0,'11111222,11111222,11144222' 
DISL,ioos:station:DISL:BSCA:1,2018-02-01T16:00:00Z,30.3288,-87.8293,0.0,0.0,0.0,99.0,'11111222,11111222,11144222' 
DISL,ioos:station:DISL:BSCA:1,2018-02-01T16:30:00Z,30.3288,-87.8293,0.0,1.2,115.0,99.0,'11111222,11111222,11144222' 
DISL,ioos:station:DISL:BSCA:1,2018-02-01T17:00:00Z,30.3288,-87.8293,0.0,0.0,0.0,99.0,'11111222,11111222,11144222' 
DISL,ioos:station:DISL:BSCA:1,2018-02-01T17:30:00Z,30.3288,-87.8293,0.0,0.3,123.0,99.0,'11111222,11111222,11144222' 
DISL,ioos:station:DISL:BSCA:1,2018-02-01T18:00:00Z,30.3288,-87.8293,0.0,0.0,0.0,99.0,'11111222,11111222,11144222' 
DISL,ioos:station:DISL:BSCA:1,2018-02-01T18:30:00Z,30.3288,-87.8293,0.0,0.0,0.0,99.0,'11111222,11111222,11144222' 
DISL,ioos:station:DISL:BSCA:1,2018-02-01T19:00:00Z,30.3288,-87.8293,0.0,0.0,0.0,99.0,'11111222,11111222,11144222' 
DISL,ioos:station:DISL:BSCA:1,2018-02-01T19:30:00Z,30.3288,-87.8293,0.0,0.0,0.0,99.0,'11111222,11111222,11144222' 
DISL,ioos:station:DISL:BSCA:1,2018-02-01T20:00:00Z,30.3288,-87.8293,0.0,0.1,137.0,99.0,'11111222,11111222,11144222' 
DISL,ioos:station:DISL:BSCA:1,2018-02-01T20:30:00Z,30.3288,-87.8293,0.0,3.9,127.0,99.0,'11111222,11111222,11144222' 
DISL,ioos:station:DISL:BSCA:1,2018-02-01T21:00:00Z,30.3288,-87.8293,0.0,1.5,134.0,99.0,'11111222,11111222,11144222' 
DISL,ioos:station:DISL:BSCA:1,2018-02-01T21:30:00Z,30.3288,-87.8293,0.0,0.0,0.0,99.0,'11111222,11111222,11144222' 
DISL,ioos:station:DISL:BSCA:1,2018-02-01T22:00:00Z,30.3288,-87.8293,0.0,0.0,0.0,99.0,'11111222,11111222,11144222' 
DISL,ioos:station:DISL:BSCA:1,2018-02-01T22:30:00Z,30.3288,-87.8293,0.0,0.0,0.0,99.0,'11111222,11111222,11144222' 
DISL,ioos:station:DISL:BSCA:1,2018-02-01T23:00:00Z,30.3288,-87.8293,0.0,0.0,175.0,99.0,'11111222,11111222,11144222' 
DISL,ioos:station:DISL:BSCA:1,2018-02-01T23:30:00Z,30.3288,-87.8293,0.0,0.0,0.0,99.0,'11111222,11111222,11144222' 
DISL,ioos:station:DISL:BSCA:1,2018-02-02T00:00:00Z,30.3288,-87.8293,0.0,0.0,0.0,99.0,'11111222,11111222,11144222' 
DISL,ioos:station:DISL:BSCA:1,2018-02-02T00:30:00Z,30.3288,-87.8293,0.0,0.0,0.0,99.0,'11111222,11111222,11144222' 
DISL,ioos:station:DISL:BSCA:1,2018-02-02T01:00:00Z,30.3288,-87.8293,0.0,0.0,0.0,99.0,'11111222,11111222,11144222' 
DISL,ioos:station:DISL:BSCA:1,2018-02-02T01:30:00Z,30.3288,-87.8293,0.0,0.0,0.0,99.0,'11111222,11111222,11144222' 
DISL,ioos:station:DISL:BSCA:1,2018-02-02T02:00:00Z,30.3288,-87.8293,0.0,0.0,0.0,99.0,'11111222,11111222,11144222' 
DISL,ioos:station:DISL:BSCA:1,2018-02-02T02:30:00Z,30.3288,-87.8293,0.0,0.0,0.0,99.0,'11111222,11111222,11144222' 
DISL,ioos:station:DISL:BSCA:1,2018-02-02T03:00:00Z,30.3288,-87.8293,0.0,0.0,0.0,99.0,'11111222,11111222,11144222' 
DISL,ioos:station:DISL:BSCA:1,2018-02-02T03:30:00Z,30.3288,-87.8293,0.0,0.0,0.0,99.0,'11111222,11111222,11144222' 
DISL,ioos:station:DISL:BSCA:1,2018-02-02T04:00:00Z,30.3288,-87.8293,0.0,0.0,0.0,99.0,'11111222,11111222,11144222' 
DISL,ioos:station:DISL:BSCA:1,2018-02-02T04:30:00Z,30.3288,-87.8293,0.0,1.7,170.0,99.0,'11111222,11111222,11144222' 
DISL,ioos:station:DISL:BSCA:1,2018-02-02T05:00:00Z,30.3288,-87.8293,0.0,1.0,187.0,99.0,'11111222,11111222,11144222' 
DISL,ioos:station:DISL:BSCA:1,2018-02-02T05:30:00Z,30.3288,-87.8293,0.0,0.0,0.0,99.0,'11111222,11111222,11144222' 
DISL,ioos:station:DISL:BSCA:1,2018-02-02T06:00:00Z,30.3288,-87.8293,0.0,2.2,196.0,99.0,'11111222,11111222,11144222' 
DISL,ioos:station:DISL:BSCA:1,2018-02-02T06:30:00Z,30.3288,-87.8293,0.0,0.0,0.0,99.0,'11111222,11111222,11144222' 
DISL,ioos:station:DISL:BSCA:1,2018-02-02T07:00:00Z,30.3288,-87.8293,0.0,0.0,0.0,99.0,'11111222,11111222,11144222' 
DISL,ioos:station:DISL:BSCA:1,2018-02-02T07:30:00Z,30.3288,-87.8293,0.0,0.5,213.0,99.0,'11111222,11111222,11144222' 
DISL,ioos:station:DISL:BSCA:1,2018-02-02T08:00:00Z,30.3288,-87.8293,0.0,2.1,245.0,99.0,'11111222,11111222,11144222' 
DISL,ioos:station:DISL:BSCA:1,2018-02-02T08:30:00Z,30.3288,-87.8293,0.0,0.1,208.0,99.0,'11111222,11111222,11144222' 
DISL,ioos:station:DISL:BSCA:1,2018-02-02T09:00:00Z,30.3288,-87.8293,0.0,3.7,277.0,99.0,'11111222,11111222,11144222' 
DISL,ioos:station:DISL:BSCA:1,2018-02-02T09:30:00Z,30.3288,-87.8293,0.0,7.2,336.0,99.0,'11111222,11111222,11144222' 
DISL,ioos:station:DISL:BSCA:1,2018-02-02T10:00:00Z,30.3288,-87.8293,0.0,8.4,343.0,99.0,'11111222,11111222,11144222' 
DISL,ioos:station:DISL:BSCA:1,2018-02-02T10:30:00Z,30.3288,-87.8293,0.0,10.0,355.0,99.0,'11111222,11111222,11144222' 
DISL,ioos:station:DISL:BSCA:1,2018-02-02T11:00:00Z,30.3288,-87.8293,0.0,8.8,354.0,99.0,'11111222,11111222,11144222' 
DISL,ioos:station:DISL:BSCA:1,2018-02-02T11:30:00Z,30.3288,-87.8293,0.0,8.2,335.0,99.0,'11111222,11111222,11144222' 
DISL,ioos:station:DISL:BSCA:1,2018-02-02T12:00:00Z,30.3288,-87.8293,0.0,8.2,356.0,99.0,'11111222,11111222,11144222' 
DISL,ioos:station:DISL:BSCA:1,2018-02-02T12:30:00Z,30.3288,-87.8293,0.0,10.4,358.0,99.0,'11111222,11111222,11144222' 
DISL,ioos:station:DISL:BSCA:1,2018-02-02T13:00:00Z,30.3288,-87.8293,0.0,8.6,354.0,99.0,'11111222,11111222,11144222' 
DISL,ioos:station:DISL:BSCA:1,2018-02-02T13:30:00Z,30.3288,-87.8293,0.0,9.4,353.0,99.0,'11111222,11111222,11144222' 
DISL,ioos:station:DISL:BSCA:1,2018-02-02T14:00:00Z,30.3288,-87.8293,0.0,8.6,352.0,99.0,'11111222,11111222,11144222' 
DISL,ioos:station:DISL:BSCA:1,2018-02-02T14:30:00Z,30.3288,-87.8293,0.0,8.5,359.0,99.0,'11111222,11111222,11144222' 
DISL,ioos:station:DISL:BSCA:1,2018-02-02T15:00:00Z,30.3288,-87.8293,0.0,9.2,8.0,99.0,'11111222,11111222,11144222' 
DISL,ioos:station:DISL:BSCA:1,2018-02-02T15:30:00Z,30.3288,-87.8293,0.0,8.0,359.0,99.0,'11111222,11111222,11144222' 
DISL,ioos:station:DISL:BSCA:1,2018-02-02T16:00:00Z,30.3288,-87.8293,0.0,9.9,7.0,99.0,'11111222,11111222,11144222' 
DISL,ioos:station:DISL:BSCA:1,2018-02-02T16:30:00Z,30.3288,-87.8293,0.0,9.1,2.0,99.0,'11111222,11111222,11144222' 
DISL,ioos:station:DISL:BSCA:1,2018-02-02T17:00:00Z,30.3288,-87.8293,0.0,8.6,1.0,99.0,'11111222,11111222,11144222' 
DISL,ioos:station:DISL:BSCA:1,2018-02-02T17:30:00Z,30.3288,-87.8293,0.0,8.7,20.0,99.0,'11111222,11111222,11144222' 
DISL,ioos:station:DISL:BSCA:1,2018-02-02T18:00:00Z,30.3288,-87.8293,0.0,8.8,9.0,99.0,'11111222,11111222,11144222' 
DISL,ioos:station:DISL:BSCA:1,2018-02-02T18:30:00Z,30.3288,-87.8293,0.0,6.4,8.0,99.0,'11111222,11111222,11144222' 
DISL,ioos:station:DISL:BSCA:1,2018-02-02T19:00:00Z,30.3288,-87.8293,0.0,7.3,1.0,99.0,'11111222,11111222,11144222' 
DISL,ioos:station:DISL:BSCA:1,2018-02-02T19:30:00Z,30.3288,-87.8293,0.0,7.0,358.0,99.0,'11111222,11111222,11144222' 
DISL,ioos:station:DISL:BSCA:1,2018-02-02T20:00:00Z,30.3288,-87.8293,0.0,7.4,2.0,99.0,'11111222,11111222,11144222' 
DISL,ioos:station:DISL:BSCA:1,2018-02-02T20:30:00Z,30.3288,-87.8293,0.0,5.8,1.0,99.0,'11111222,11111222,11144222' 
DISL,ioos:station:DISL:BSCA:1,2018-02-02T21:00:00Z,30.3288,-87.8293,0.0,0.0,350.0,99.0,'11111222,11111222,11144222' 
DISL,ioos:station:DISL:BSCA:1,2018-02-02T21:30:00Z,30.3288,-87.8293,0.0,0.0,350.0,99.0,'11111222,11111222,11144222' 
DISL,ioos:station:DISL:BSCA:1,2018-02-02T22:00:00Z,30.3288,-87.8293,0.0,2.7,353.0,99.0,'11111222,11111222,11144222' 
DISL,ioos:station:DISL:BSCA:1,2018-02-02T22:30:00Z,30.3288,-87.8293,0.0,7.7,355.0,99.0,'11111222,11111222,11144222' 
DISL,ioos:station:DISL:BSCA:1,2018-02-02T23:00:00Z,30.3288,-87.8293,0.0,3.6,355.0,99.0,'11111222,11111222,11144222' 
DISL,ioos:station:DISL:BSCA:1,2018-02-02T23:30:00Z,30.3288,-87.8293,0.0,3.1,352.0,99.0,'11111222,11111222,11144222' 
DISL,ioos:station:DISL:BSCA:1,2018-02-03T00:00:00Z,30.3288,-87.8293,0.0,2.2,341.0,99.0,'11111222,11111222,11144222' 
DISL,ioos:station:DISL:BSCA:1,2018-02-03T00:30:00Z,30.3288,-87.8293,0.0,4.6,350.0,99.0,'11111222,11111222,11144222' 
DISL,ioos:station:DISL:BSCA:1,2018-02-03T01:00:00Z,30.3288,-87.8293,0.0,5.5,355.0,99.0,'11111222,11111222,11144222' 
DISL,ioos:station:DISL:BSCA:1,2018-02-03T01:30:00Z,30.3288,-87.8293,0.0,1.5,356.0,99.0,'11111222,11111222,11144222' 
DISL,ioos:station:DISL:BSCA:1,2018-02-03T02:00:00Z,30.3288,-87.8293,0.0,0.8,354.0,99.0,'11111222,11111222,11144222' 
DISL,ioos:station:DISL:BSCA:1,2018-02-03T02:30:00Z,30.3288,-87.8293,0.0,2.1,8.0,99.0,'11111222,11111222,11144222' 
DISL,ioos:station:DISL:BSCA:1,2018-02-03T03:00:00Z,30.3288,-87.8293,0.0,4.8,18.0,99.0,'11111222,11111222,11144222' 
DISL,ioos:station:DISL:BSCA:1,2018-02-03T03:30:00Z,30.3288,-87.8293,0.0,2.6,19.0,99.0,'11111222,11111222,11144222' 
DISL,ioos:station:DISL:BSCA:1,2018-02-03T04:00:00Z,30.3288,-87.8293,0.0,5.6,22.0,99.0,'11111222,11111222,11144222' 
DISL,ioos:station:DISL:BSCA:1,2018-02-03T04:30:00Z,30.3288,-87.8293,0.0,4.7,16.0,99.0,'11111222,11111222,11144222' 
DISL,ioos:station:DISL:BSCA:1,2018-02-03T05:00:00Z,30.3288,-87.8293,0.0,0.7,25.0,99.0,'11111222,11111222,11144222' 
DISL,ioos:station:DISL:BSCA:1,2018-02-03T05:30:00Z,30.3288,-87.8293,0.0,5.8,31.0,99.0,'11111222,11111222,11144222' 
DISL,ioos:station:DISL:BSCA:1,2018-02-03T06:00:00Z,30.3288,-87.8293,0.0,5.5,27.0,99.0,'11111222,11111222,11144222' 
DISL,ioos:station:DISL:BSCA:1,2018-02-03T06:30:00Z,30.3288,-87.8293,0.0,6.6,30.0,99.0,'11111222,11111222,11144222' 
DISL,ioos:station:DISL:BSCA:1,2018-02-03T07:00:00Z,30.3288,-87.8293,0.0,7.0,33.0,99.0,'11111222,11111222,11144222' 
DISL,ioos:station:DISL:BSCA:1,2018-02-03T07:30:00Z,30.3288,-87.8293,0.0,6.6,35.0,99.0,'11111222,11111222,11144222' 
DISL,ioos:station:DISL:BSCA:1,2018-02-03T08:00:00Z,30.3288,-87.8293,0.0,6.7,37.0,99.0,'11111222,11111222,11144222' 
DISL,ioos:station:DISL:BSCA:1,2018-02-03T08:30:00Z,30.3288,-87.8293,0.0,7.4,39.0,99.0,'11111222,11111222,11144222' 
DISL,ioos:station:DISL:BSCA:1,2018-02-03T09:00:00Z,30.3288,-87.8293,0.0,7.3,40.0,99.0,'11111222,11111222,11144222' 
DISL,ioos:station:DISL:BSCA:1,2018-02-03T09:30:00Z,30.3288,-87.8293,0.0,8.0,43.0,99.0,'11111222,11111222,11144222' 
DISL,ioos:station:DISL:BSCA:1,2018-02-03T10:00:00Z,30.3288,-87.8293,0.0,7.7,46.0,99.0,'11111222,11111222,11144222' 
DISL,ioos:station:DISL:BSCA:1,2018-02-03T10:30:00Z,30.3288,-87.8293,0.0,6.7,48.0,99.0,'11111222,11111222,11144222' 
DISL,ioos:station:DISL:BSCA:1,2018-02-03T11:00:00Z,30.3288,-87.8293,0.0,1.7,58.0,99.0,'11111222,11111222,11144222' 
DISL,ioos:station:DISL:BSCA:1,2018-02-03T11:30:00Z,30.3288,-87.8293,0.0,3.8,60.0,99.0,'11111222,11111222,11144222' 
DISL,ioos:station:DISL:BSCA:1,2018-02-03T12:00:00Z,30.3288,-87.8293,0.0,6.2,54.0,99.0,'11111222,11111222,11144222' 
DISL,ioos:station:DISL:BSCA:1,2018-02-03T12:30:00Z,30.3288,-87.8293,0.0,3.6,55.0,99.0,'11111222,11111222,11144222' 
DISL,ioos:station:DISL:BSCA:1,2018-02-03T13:00:00Z,30.3288,-87.8293,0.0,3.6,57.0,99.0,'11111222,11111222,11144222' 
DISL,ioos:station:DISL:BSCA:1,2018-02-03T13:30:00Z,30.3288,-87.8293,0.0,3.9,62.0,99.0,'11111222,11111222,11144222' 
DISL,ioos:station:DISL:BSCA:1,2018-02-03T14:00:00Z,30.3288,-87.8293,0.0,4.2,60.0,99.0,'11111222,11111222,11144222' 
DISL,ioos:station:DISL:BSCA:1,2018-02-03T14:30:00Z,30.3288,-87.8293,0.0,3.4,63.0,99.0,'11111222,11111222,11144222' 
DISL,ioos:station:DISL:BSCA:1,2018-02-03T15:00:00Z,30.3288,-87.8293,0.0,6.1,74.0,99.0,'11111222,11111222,11144222' 
DISL,ioos:station:DISL:BSCA:1,2018-02-03T15:30:00Z,30.3288,-87.8293,0.0,1.0,74.0,99.0,'11111222,11111222,11144222' 
DISL,ioos:station:DISL:BSCA:1,2018-02-03T16:00:00Z,30.3288,-87.8293,0.0,5.8,83.0,99.0,'11111222,11111222,11144222' 
DISL,ioos:station:DISL:BSCA:1,2018-02-03T16:30:00Z,30.3288,-87.8293,0.0,5.5,78.0,99.0,'11111222,11111222,11144222' 
DISL,ioos:station:DISL:BSCA:1,2018-02-03T17:00:00Z,30.3288,-87.8293,0.0,4.5,98.0,99.0,'11111222,11111222,11144222' 
DISL,ioos:station:DISL:BSCA:1,2018-02-03T17:30:00Z,30.3288,-87.8293,0.0,7.0,92.0,99.0,'11111222,11111222,11144222' 
DISL,ioos:station:DISL:BSCA:1,2018-02-03T18:00:00Z,30.3288,-87.8293,0.0,6.6,92.0,99.0,'11111222,11111222,11144222' 
DISL,ioos:station:DISL:BSCA:1,2018-02-03T18:30:00Z,30.3288,-87.8293,0.0,6.1,95.0,99.0,'11111222,11111222,11144222' 
DISL,ioos:station:DISL:BSCA:1,2018-02-03T19:00:00Z,30.3288,-87.8293,0.0,6.8,92.0,99.0,'11111222,11111222,11144222' 
DISL,ioos:station:DISL:BSCA:1,2018-02-03T19:30:00Z,30.3288,-87.8293,0.0,6.2,92.0,99.0,'11111222,11111222,11144222' 
DISL,ioos:station:DISL:BSCA:1,2018-02-03T20:00:00Z,30.3288,-87.8293,0.0,0.3,87.0,99.0,'11111222,11111222,11144222' 
DISL,ioos:station:DISL:BSCA:1,2018-02-03T20:30:00Z,30.3288,-87.8293,0.0,0.0,87.0,99.0,'11111222,11111222,11144222' 
DISL,ioos:station:DISL:BSCA:1,2018-02-03T21:00:00Z,30.3288,-87.8293,0.0,0.3,91.0,99.0,'11111222,11111222,11144222' 
DISL,ioos:station:DISL:BSCA:1,2018-02-03T21:30:00Z,30.3288,-87.8293,0.0,0.0,93.0,99.0,'11111222,11111222,11144222' 
DISL,ioos:station:DISL:BSCA:1,2018-02-03T22:00:00Z,30.3288,-87.8293,0.0,0.3,88.0,99.0,'11111222,11111222,11144222' 
DISL,ioos:station:DISL:BSCA:1,2018-02-03T22:30:00Z,30.3288,-87.8293,0.0,0.0,0.0,99.0,'11111222,11111222,11144222' 
DISL,ioos:station:DISL:BSCA:1,2018-02-03T23:00:00Z,30.3288,-87.8293,0.0,0.0,0.0,99.0,'11111222,11111222,11144222' 
DISL,ioos:station:DISL:BSCA:1,2018-02-03T23:30:00Z,30.3288,-87.8293,0.0,0.0,0.0,99.0,'11111222,11111222,11144222' 
DISL,ioos:station:DISL:BSCA:1,2018-02-04T00:00:00Z,30.3288,-87.8293,0.0,0.0,0.0,99.0,'11111222,11111222,11144222' 
DISL,ioos:station:DISL:BSCA:1,2018-02-04T00:30:00Z,30.3288,-87.8293,0.0,0.0,0.0,99.0,'11111222,11111222,11144222' 
DISL,ioos:station:DISL:BSCA:1,2018-02-04T01:00:00Z,30.3288,-87.8293,0.0,0.0,0.0,99.0,'11111222,11111222,11144222' 
DISL,ioos:station:DISL:BSCA:1,2018-02-04T01:30:00Z,30.3288,-87.8293,0.0,2.8,68.0,99.0,'11111222,11111222,11144222' 
DISL,ioos:station:DISL:BSCA:1,2018-02-04T02:00:00Z,30.3288,-87.8293,0.0,0.0,74.0,99.0,'11111222,11111222,11144222' 
DISL,ioos:station:DISL:BSCA:1,2018-02-04T02:30:00Z,30.3288,-87.8293,0.0,0.0,71.0,99.0,'11111222,11111222,11144222' 
DISL,ioos:station:DISL:BSCA:1,2018-02-04T03:00:00Z,30.3288,-87.8293,0.0,0.0,0.0,99.0,'11111222,11111222,11144222' 
DISL,ioos:station:DISL:BSCA:1,2018-02-04T03:30:00Z,30.3288,-87.8293,0.0,0.0,0.0,99.0,'11111222,11111222,11144222' 
DISL,ioos:station:DISL:BSCA:1,2018-02-04T04:00:00Z,30.3288,-87.8293,0.0,0.0,99.0,99.0,'11111222,11111222,11144222' 
DISL,ioos:station:DISL:BSCA:1,2018-02-04T04:30:00Z,30.3288,-87.8293,0.0,0.6,97.0,99.0,'11111222,11111222,11144222' 
DISL,ioos:station:DISL:BSCA:1,2018-02-04T05:00:00Z,30.3288,-87.8293,0.0,0.0,0.0,99.0,'11111222,11111222,11144222' 
DISL,ioos:station:DISL:BSCA:1,2018-02-04T05:30:00Z,30.3288,-87.8293,0.0,0.0,0.0,99.0,'11111222,11111222,11144222' 
DISL,ioos:station:DISL:BSCA:1,2018-02-04T06:00:00Z,30.3288,-87.8293,0.0,7.2,113.0,99.0,'11111222,11111222,11144222' 
DISL,ioos:station:DISL:BSCA:1,2018-02-04T06:30:00Z,30.3288,-87.8293,0.0,7.5,114.0,99.0,'11111222,11111222,11144222' 
DISL,ioos:station:DISL:BSCA:1,2018-02-04T07:00:00Z,30.3288,-87.8293,0.0,6.5,124.0,99.0,'11111222,11111222,11144222' 
DISL,ioos:station:DISL:BSCA:1,2018-02-04T07:30:00Z,30.3288,-87.8293,0.0,6.7,129.0,99.0,'11111222,11111222,11144222' 
DISL,ioos:station:DISL:BSCA:1,2018-02-04T08:00:00Z,30.3288,-87.8293,0.0,7.7,126.0,99.0,'11111222,11111222,11144222' 
DISL,ioos:station:DISL:BSCA:1,2018-02-04T08:30:00Z,30.3288,-87.8293,0.0,8.4,135.0,99.0,'11111222,11111222,11144222' 
DISL,ioos:station:DISL:BSCA:1,2018-02-04T09:00:00Z,30.3288,-87.8293,0.0,7.8,137.0,99.0,'11111222,11111222,11144222' 
DISL,ioos:station:DISL:BSCA:1,2018-02-04T09:30:00Z,30.3288,-87.8293,0.0,6.8,146.0,99.0,'11111222,11111222,11144222' 
DISL,ioos:station:DISL:BSCA:1,2018-02-04T10:00:00Z,30.3288,-87.8293,0.0,6.4,150.0,99.0,'11111222,11111222,11144222' 
DISL,ioos:station:DISL:BSCA:1,2018-02-04T10:30:00Z,30.3288,-87.8293,0.0,6.1,146.0,99.0,'11111222,11111222,11144222' 
DISL,ioos:station:DISL:BSCA:1,2018-02-04T11:00:00Z,30.3288,-87.8293,0.0,5.9,171.0,99.0,'11111222,11111222,11144222' 
DISL,ioos:station:DISL:BSCA:1,2018-02-04T11:30:00Z,30.3288,-87.8293,0.0,8.6,213.0,99.0,'11111222,11111222,11144222' 
DISL,ioos:station:DISL:BSCA:1,2018-02-04T12:00:00Z,30.3288,-87.8293,0.0,5.4,206.0,99.0,'11111222,11111222,11144222' 
DISL,ioos:station:DISL:BSCA:1,2018-02-04T12:30:00Z,30.3288,-87.8293,0.0,5.7,217.0,99.0,'11111222,11111222,11144222' 
DISL,ioos:station:DISL:BSCA:1,2018-02-04T13:00:00Z,30.3288,-87.8293,0.0,5.6,232.0,99.0,'11111222,11111222,11144222' 
DISL,ioos:station:DISL:BSCA:1,2018-02-04T13:30:00Z,30.3288,-87.8293,0.0,5.5,248.0,99.0,'11111222,11111222,11144222' 
DISL,ioos:station:DISL:BSCA:1,2018-02-04T14:00:00Z,30.3288,-87.8293,0.0,6.3,239.0,99.0,'11111222,11111222,11144222' 
DISL,ioos:station:DISL:BSCA:1,2018-02-04T14:30:00Z,30.3288,-87.8293,0.0,5.9,244.0,99.0,'11111222,11111222,11144222' 
DISL,ioos:station:DISL:BSCA:1,2018-02-04T15:00:00Z,30.3288,-87.8293,0.0,4.4,251.0,99.0,'11111222,11111222,11144222' 
DISL,ioos:station:DISL:BSCA:1,2018-02-04T15:30:00Z,30.3288,-87.8293,0.0,3.4,246.0,99.0,'11111222,11111222,11144222' 
DISL,ioos:station:DISL:BSCA:1,2018-02-04T16:00:00Z,30.3288,-87.8293,0.0,3.1,266.0,99.0,'11111222,11111222,11144222' 
DISL,ioos:station:DISL:BSCA:1,2018-02-04T16:30:00Z,30.3288,-87.8293,0.0,4.9,238.0,99.0,'11111222,11111222,11144222' 
DISL,ioos:station:DISL:BSCA:1,2018-02-04T17:00:00Z,30.3288,-87.8293,0.0,6.5,272.0,99.0,'11111222,11111222,11144222' 
DISL,ioos:station:DISL:BSCA:1,2018-02-04T17:30:00Z,30.3288,-87.8293,0.0,2.8,275.0,99.0,'11111222,11111222,11144222' 
DISL,ioos:station:DISL:BSCA:1,2018-02-04T18:00:00Z,30.3288,-87.8293,0.0,2.9,291.0,99.0,'11111222,11111222,11144222' 
DISL,ioos:station:DISL:BSCA:1,2018-02-04T18:30:00Z,30.3288,-87.8293,0.0,0.0,307.0,99.0,'11111222,11111222,11144222' 
DISL,ioos:station:DISL:BSCA:1,2018-02-04T19:00:00Z,30.3288,-87.8293,0.0,0.0,0.0,99.0,'11111222,11111222,11144222' 
DISL,ioos:station:DISL:BSCA:1,2018-02-04T19:30:00Z,30.3288,-87.8293,0.0,0.1,301.0,99.0,'11111222,11111222,11144222' 
DISL,ioos:station:DISL:BSCA:1,2018-02-04T20:00:00Z,30.3288,-87.8293,0.0,5.0,314.0,99.0,'11111222,11111222,11144222' 
DISL,ioos:station:DISL:BSCA:1,2018-02-04T20:30:00Z,30.3288,-87.8293,0.0,5.2,305.0,99.0,'11111222,11111222,11144222' 
DISL,ioos:station:DISL:BSCA:1,2018-02-04T21:00:00Z,30.3288,-87.8293,0.0,0.0,303.0,99.0,'11111222,11111222,11144222' 
DISL,ioos:station:DISL:BSCA:1,2018-02-04T21:30:00Z,30.3288,-87.8293,0.0,2.0,288.0,99.0,'11111222,11111222,11144222' 
DISL,ioos:station:DISL:BSCA:1,2018-02-04T22:00:00Z,30.3288,-87.8293,0.0,0.1,282.0,99.0,'11111222,11111222,11144222' 
DISL,ioos:station:DISL:BSCA:1,2018-02-04T22:30:00Z,30.3288,-87.8293,0.0,4.2,282.0,99.0,'11111222,11111222,11144222' 
DISL,ioos:station:DISL:BSCA:1,2018-02-04T23:00:00Z,30.3288,-87.8293,0.0,1.2,225.0,99.0,'11111222,11111222,11144222' 
DISL,ioos:station:DISL:BSCA:1,2018-02-04T23:30:00Z,30.3288,-87.8293,0.0,0.7,226.0,99.0,'11111222,11111222,11144222' 
DISL,ioos:station:DISL:BSCA:1,2018-02-05T00:00:00Z,30.3288,-87.8293,0.0,0.2,215.0,99.0,'11111222,11111222,11144222' 
DISL,ioos:station:DISL:BSCA:1,2018-02-05T00:30:00Z,30.3288,-87.8293,0.0,0.0,0.0,99.0,'11111222,11111222,11144222' 
DISL,ioos:station:DISL:BSCA:1,2018-02-05T01:00:00Z,30.3288,-87.8293,0.0,0.0,0.0,99.0,'11111222,11111222,11144222' 
DISL,ioos:station:DISL:BSCA:1,2018-02-05T01:30:00Z,30.3288,-87.8293,0.0,0.0,0.0,99.0,'11111222,11111222,11144222' 
DISL,ioos:station:DISL:BSCA:1,2018-02-05T02:00:00Z,30.3288,-87.8293,0.0,0.0,0.0,99.0,'11111222,11111222,11144222' 
DISL,ioos:station:DISL:BSCA:1,2018-02-05T02:30:00Z,30.3288,-87.8293,0.0,0.0,0.0,99.0,'11111222,11111222,11144222' 
DISL,ioos:station:DISL:BSCA:1,2018-02-05T03:00:00Z,30.3288,-87.8293,0.0,0.1,285.0,99.0,'11111222,11111222,11144222' 
DISL,ioos:station:DISL:BSCA:1,2018-02-05T03:30:00Z,30.3288,-87.8293,0.0,0.0,0.0,99.0,'11111222,11111222,11144222' 
DISL,ioos:station:DISL:BSCA:1,2018-02-05T04:00:00Z,30.3288,-87.8293,0.0,0.5,338.0,99.0,'11111222,11111222,11144222' 
DISL,ioos:station:DISL:BSCA:1,2018-02-05T04:30:00Z,30.3288,-87.8293,0.0,2.0,338.0,99.0,'11111222,11111222,11144222' 
DISL,ioos:station:DISL:BSCA:1,2018-02-05T05:00:00Z,30.3288,-87.8293,0.0,3.2,354.0,99.0,'11111222,11111222,11144222' 
DISL,ioos:station:DISL:BSCA:1,2018-02-05T05:30:00Z,30.3288,-87.8293,0.0,3.1,6.0,99.0,'11111222,11111222,11144222' 
DISL,ioos:station:DISL:BSCA:1,2018-02-05T06:00:00Z,30.3288,-87.8293,0.0,5.0,5.0,99.0,'11111222,11111222,11144222' 